Location: Betra
(48.4113°N, 8.6634°E)
Time: 14:54:17
(UTC+00:00)

Cosmos 1850 Rocket - Pass Details

Date: 20 August 2024
Orbit: 751 x 783 km, 74.0° (Epoch: 17 September)

Event Time Altitude Azimuth Distance (km) Brightness Sun altitude
Rises 19:20:59 0° 326° (NW) 3,271 8.5 -8.6°
Reaches altitude 10° 19:23:49 10° 312° (NW) 2,342 8.1 -9.0°
Maximum altitude 19:27:51 22° 263° (W) 1,642 6.4 -9.6°
Drops below altitude 10° 19:31:53 10° 213° (SSW) 2,335 6.5 -10.1°
Sets 19:34:43 0° 199° (SSW) 3,259 7.1 -10.5°
